EW5933 Weather Reports


Display with metric or nautical units.
time (UTC)temp
F
wind
direction
speed
MPH
gust
MPH
rain 1hr
in
rain 24hr
in
rain mn
in
humidity
%
barometer
mb
20181120210111 63 247 2.0 2.0 0.00 0.00 0.00 58 1010.1
20181120202111 64 247 0.0 0.0 0.00 0.00 0.00 56 1009.6
20181120201110 64 247 0.0 0.0 0.00 0.00 0.00 56 1009.6
20181120200110 64 247 1.0 0.0 0.00 0.00 0.00 56 1009.2
20181120194111 64 247 0.0 0.0 0.00 0.00 0.00 56 1008.9
20181120191110 65 90 0.0 0.0 0.00 0.00 0.00 55 1008.6
20181120190111 65 292 0.0 0.0 0.00 0.00 0.00 55 1008.4
20181120184110 65 315 0.0 0.0 0.00 0.00 0.00 55 1008.2
20181120180111 66 157 2.0 2.0 0.00 0.00 0.00 55 1007.3
20181120175110 66 270 2.0 2.0 0.00 0.00 0.00 54 1007.3
20181120172110 66 22 2.0 3.0 0.00 0.00 0.00 52 1006.2
20181120165114 67 315 2.0 3.0 0.00 0.00 0.00 52 1006.1
20181120164115 67 135 2.0 3.0 0.00 0.00 0.00 52 1005.7
20181120162114 68 22 2.0 6.0 0.00 0.00 0.00 51 1004.9
20181120161114 68 45 2.0 1.0 0.00 0.00 0.00 51 1004.9
20181120160114 68 337 2.0 6.0 0.00 0.00 0.00 50 1004.6
20181120155115 69 135 2.0 2.0 0.00 0.00 0.00 49 1004.6
20181120154113 69 22 2.0 3.0 0.00 0.00 0.00 50 1004.0
20181120153116 69 135 2.0 2.0 0.00 0.00 0.00 51 1004.0
20181120150113 70 315 2.0 3.0 0.00 0.00 0.00 53 1003.3
20181120145113 70 247 2.0 2.0 0.00 0.00 0.00 52 1003.3
20181120144113 70 157 1.0 3.0 0.00 0.00 0.00 52 1002.8
20181120143113 70 315 2.0 1.0 0.00 0.00 0.00 52 1002.8
20181120141113 70 225 1.0 0.0 0.00 0.00 0.00 52 1002.6
20181120132113 70 225 3.0 4.0 0.00 0.00 0.00 52 1001.9
20181120124113 70 270 7.0 8.0 0.00 0.00 0.00 51 1001.6
20181120123113 70 315 7.0 8.0 0.00 0.00 0.00 51 1001.6
20181120122112 70 292 8.0 15.0 0.00 0.00 0.00 51 1002.1
20181120121113 71 202 7.0 11.0 0.00 0.00 0.00 52 1002.1
20181120120113 71 247 6.0 13.0 0.00 0.00 0.00 52 1002.0
20181120112113 71 202 7.0 11.0 0.00 0.00 0.00 53 1001.8
20181120105113 72 247 6.0 11.0 0.00 0.00 0.00 54 1001.8
20181120104112 71 247 7.0 12.0 0.00 0.00 0.00 54 1001.7
20181120101112 71 225 8.0 12.0 0.00 0.00 0.00 54 1001.8
20181120095111 72 180 9.0 9.0 0.00 0.00 0.00 50 1002.1
20181120094112 73 270 8.0 12.0 0.00 0.00 0.00 51 1001.9
20181120091111 72 202 8.0 7.0 0.00 0.00 0.00 54 1001.9
20181120090112 71 247 7.0 9.0 0.00 0.00 0.00 54 1002.1
20181120085112 71 225 7.0 15.0 0.00 0.00 0.00 56 1002.1
20181120084111 71 247 6.0 10.0 0.00 0.00 0.00 57 1001.6
20181120083111 70 225 5.0 8.0 0.00 0.00 0.00 59 1001.6
20181120081111 69 247 5.0 6.0 0.00 0.00 0.00 60 1001.4
20181120074111 66 180 6.0 10.0 0.00 0.00 0.00 63 1001.1
20181120071111 61 247 4.0 8.0 0.00 0.00 0.00 68 1001.0
20181120070111 61 315 3.0 5.0 0.00 0.00 0.00 68 1000.7
20181120065110 61 315 3.0 3.0 0.00 0.00 0.00 68 1000.7
20181120064110 61 247 3.0 7.0 0.00 0.00 0.00 68 1000.2
20181120063110 61 247 2.0 5.0 0.00 0.00 0.00 67 1000.2
20181120062110 61 22 3.0 4.0 0.00 0.00 0.00 68 999.9
20181120061110 61 225 3.0 3.0 0.00 0.00 0.00 67 999.9
20181120060110 61 225 2.0 3.0 0.00 0.00 0.00 68 1000.1
20181120055111 61 247 3.0 2.0 0.00 0.00 0.00 67 1000.1
20181120054111 61 292 3.0 4.0 0.00 0.00 0.00 67 999.4
20181120050110 61 247 4.0 3.0 0.00 0.00 0.00 67 999.9
20181120042109 61 247 4.0 7.0 0.00 0.00 0.00 68 999.8
20181120040109 61 247 4.0 5.0 0.00 0.00 0.00 68 999.8
20181120035110 61 247 4.0 7.0 0.00 0.00 0.00 68 999.8
20181120032115 61 225 1.0 3.0 0.00 0.00 0.00 68 999.9
20181120031114 61 180 1.0 0.0 0.00 0.00 0.00 68 999.9
20181120030114 61 270 1.0 2.0 0.00 0.00 0.00 69 999.7
20181120023115 62 202 0.0 0.0 0.00 0.00 0.00 70 999.9
20181120021114 62 270 0.0 0.0 0.00 0.00 0.00 71 999.6
20181120015113 62 247 1.0 1.0 0.00 0.00 0.00 71 999.8
20181120012113 62 247 1.0 1.0 0.00 0.00 0.00 73 999.4
20181120005113 62 247 3.0 7.0 0.00 0.00 0.00 74 999.1
20181120004113 62 180 4.0 9.0 0.00 0.00 0.00 74 999.1
20181120000113 62 247 2.0 4.0 0.00 0.00 0.00 75 999.4
20181119235113 63 180 2.0 4.0 0.00 0.00 0.00 75 999.4
20181119234113 63 247 2.0 2.0 0.00 0.00 0.00 75 999.6
20181119232113 63 247 2.0 3.0 0.00 0.00 0.00 74 999.7
20181119230113 63 225 1.0 4.0 0.00 0.00 0.00 75 999.6
20181119225112 64 225 3.0 2.0 0.00 0.00 0.00 75 999.6
20181119224113 64 315 2.0 5.0 0.00 0.00 0.00 75 999.6
20181119223113 64 247 2.0 4.0 0.00 0.00 0.00 74 999.6
20181119221112 64 247 3.0 4.0 0.00 0.00 0.00 74 999.5
20181119220113 64 247 3.0 4.0 0.00 0.00 0.00 74 999.3
20181119215112 64 247 2.0 2.0 0.00 0.00 0.00 74 999.3
20181119213112 64 270 0.0 0.0 0.00 0.00 0.00 74 999.2
20181119212112 64 247 0.0 0.0 0.00 0.00 0.00 74 998.9